Temp
26 25 23 23 23 23 22 23 23 22 21 20 20 20 19 19 19 18 19 19 20 20 19 19 20 19 19 20 19 20 20 21 21 19 18 16 16 15 15 14 14 14 14
25 24 24 23 24 21 22 21 21 22 22 22 22 22 21 19 19 19 19 19 19 20 20 20 20 20 20 19 19 19 20 20 20 19 18 15 16 16 14 15 14 14 15
26 25 24 23 23 23 21 21 21 21 20 20 21 22 21 20 19 19 18 18 18 18 19 20 20 20 19 18 19 19 18 18 18 18 17 16 15 14 14 14 14 15 15
22 22 22 22 22 21 21 21 21 20 20 20 20 20 22 21 19 19 19 19 19 18 18 19 17 18 18 18 17 19 19 18 18 18 18 17 16 14 14 14 14 14 15
22 21 22 23 23 22 21 20 20 21 21 21 21 20 19 19 19 20 20 19 19 19 18 18 17 17 16 17 16 17 17 17 18 18 19 18 17 15 14 15 15 15 15
23 21 21 23 23 23 23 23 23 23 21 21 20 20 19 20 20 20 20 20 18 17 16 15 16 16 16 16 17 17 17 17 18 19 18 19 18 16 15 16 16 16 16
21 21 20 20 20 20 21 21 21 21 21 20 20 20 20 20 20 20 21 18 17 17 18 19 18 18 16 15 16 17 17 18 19 18 18 19 18 16 16 15 16 16 16
21 21 21 21 21 21 20 20 20 20 20 20 20 21 20 21 21 20 20 20 20 20 19 20 19 19 19 17 17 17 17 17 18 18 18 17 17 16 16 16 15 15 15
22 22 22 22 22 21 21 21 20 20 20 20 19 21 20 20 20 20 20 20 20 19 19 20 20 18 18 17 16 17 18 18 17 17 16 16 16 16 16 15 14 14 15
25 25 25 24 24 24 24 23 23 22 21 21 21 20 19 21 19 21 20 20 20 20 20 19 19 18 18 18 17 17 16 17 17 17 16 16 15 15 16 16 14 15 15
23 24 24 24 24 23 23 23 23 22 22 21 20 19 19 19 19 20 19 19 20 19 19 19 18 17 18 17 17 16 17 16 16 16 16 15 15 15 15 15 14 15 16
22 21 21 23 22 21 21 22 21 21 20 20 21 20 21 21 20 20 20 18 19 18 19 19 19 18 17 17 17 16 16 15 15 15 15 15 14 14 14 15 14 14 15
21 21 21 21 21 22 21 21 20 21 21 22 23 22 23 22 22 20 20 19 18 17 18 17 17 17 17 16 16 16 15 15 15 15 15 15 15 15 14 14 14 14 13
21 20 20 20 20 20 20 21 21 22 21 21 22 22 22 22 22 21 20 19 18 17 17 17 17 17 17 16 16 16 15 14 15 15 15 15 16 15 14 14 13 13 13
20 20 20 21 21 21 21 21 21 20 20 19 19 19 20 20 21 20 19 18 17 17 16 17 17 17 16 16 16 16 15 14 14 14 14 15 16 15 14 14 13 13 13
20 21 21 20 21 21 21 21 21 20 19 19 19 18 18 17 18 18 19 18 17 16 15 16 16 16 16 16 16 15 15 15 14 14 14 14 15 14 14 14 14 13 13
18 19 20 19 20 20 20 20 20 20 19 19 19 18 18 18 18 18 17 18 17 17 16 15 15 16 16 17 16 16 16 15 14 13 13 14 14 14 14 14 14 13 13
18 19 19 19 19 19 19 18 19 19 19 19 19 18 18 18 18 17 17 17 17 17 17 17 17 17 17 17 16 16 16 16 15 13 12 12 13 13 13 14 13 13 13
18 18 17 17 18 17 17 18 18 18 17 17 17 17 17 16 16 16 16 16 16 16 15 15 15 15 15 16 17 16 15 16 15 14 13 12 13 12 13 13 13 13 13
18 17 16 16 17 17 17 16 16 16 16 16 16 15 15 13 13 13 14 15 15 15 15 15 15 14 14 14 14 15 15 15 15 13 13 12 12 12 12 13 13 13 12
17 17 16 16 17 16 16 15 15 15 15 15 14 14 13 12 10 11 11 12 14 14 14 14 14 13 14 14 14 14 14 15 14 14 13 12 12 12 12 13 13 13 13
17 16 16 16 15 15 14 14 14 14 14 13 12 12 11 10 9 10 11 11 12 12 12 13 13 13 13 13 15 14 14 14 14 14 14 12 12 11 12 13 13 12 12
16 15 14 14 14 12 14 13 13 12 11 11 11 10 9 10 10 9 10 10 11 11 12 12 12 12 13 13 13 13 14 14 14 14 13 13 12 11 12 12 12 11 11
13 13 13 13 12 13 13 12 11 10 9 9 9 9 9 9 9 9 9 10 10 12 12 12 12 12 12 12 12 13 13 14 14 13 13 13 12 11 11 11 12 11 10
12 12 13 13 13 12 11 9 8 8 8 8 9 9 8 9 10 9 9 10 11 12 12 12 12 12 12 12 12 12 13 13 13 13 13 13 12 12 11 11 11 10 10
11 11 11 11 10 9 9 8 7 8 9 9 9 9 8 9 9 9 10 10 11 11 12 12 12 12 12 12 12 12 12 12 13 12 12 12 12 11 11 10 10 10 9
Height
1543 1544 1549 1550 1553 1557 1560 1562 1564 1566 1568 1570 1570 1572 1573 1573 1573 1573 1574 1576 1574 1574 1576 1575 1575 1576 1578 1580 1580 1580 1581 1581 1582 1584 1586 1586 1588 1591 1592 1593 1593 1594 1592
1544 1545 1548 1551 1552 1554 1556 1559 1561 1562 1564 1565 1566 1567 1568 1569 1569 1569 1570 1572 1570 1571 1571 1572 1572 1572 1572 1574 1576 1577 1578 1579 1581 1581 1582 1582 1585 1587 1588 1590 1593 1594 1594
1541 1545 1546 1544 1547 1551 1556 1557 1559 1560 1560 1561 1561 1562 1563 1564 1565 1566 1566 1567 1568 1567 1568 1568 1569 1569 1570 1570 1568 1573 1575 1575 1577 1579 1580 1581 1581 1584 1585 1586 1588 1592 1593
1542 1543 1544 1545 1547 1551 1553 1554 1556 1556 1556 1557 1557 1558 1558 1559 1560 1561 1562 1562 1563 1563 1563 1564 1565 1565 1566 1567 1569 1568 1570 1573 1575 1577 1578 1578 1579 1581 1583 1585 1586 1589 1591
1538 1540 1542 1543 1545 1547 1549 1551 1551 1551 1551 1552 1552 1552 1552 1553 1555 1554 1555 1555 1555 1557 1562 1562 1563 1563 1562 1562 1565 1563 1565 1569 1572 1573 1576 1576 1576 1577 1580 1583 1585 1586 1589
1536 1538 1540 1541 1543 1545 1546 1547 1546 1546 1547 1546 1546 1546 1547 1548 1548 1548 1549 1548 1553 1550 1554 1554 1555 1554 1556 1556 1558 1560 1560 1563 1565 1569 1571 1573 1572 1573 1576 1580 1582 1583 1585
1536 1538 1539 1541 1542 1542 1543 1544 1543 1543 1543 1543 1542 1541 1540 1540 1540 1541 1544 1543 1533 1526 1549 1543 1538 1542 1540 1548 1551 1553 1555 1557 1559 1562 1564 1566 1566 1567 1570 1572 1577 1580 1580
1538 1538 1539 1541 1542 1543 1543 1543 1542 1541 1540 1538 1537 1536 1534 1533 1533 1533 1534 1534 1528 1525 1536 1535 1535 1534 1536 1537 1542 1546 1548 1551 1553 1556 1559 1562 1563 1562 1565 1569 1572 1576 1578
1538 1537 1539 1540 1541 1542 1542 1541 1541 1540 1538 1537 1534 1532 1530 1528 1526 1527 1528 1528 1526 1527 1529 1529 1528 1530 1531 1535 1536 1540 1544 1547 1549 1551 1554 1556 1558 1558 1561 1565 1567 1571 1573
1536 1536 1538 1539 1540 1539 1539 1538 1537 1536 1535 1534 1532 1530 1527 1523 1521 1520 1522 1521 1519 1518 1519 1521 1523 1524 1527 1528 1531 1533 1538 1542 1544 1545 1548 1551 1553 1554 1557 1560 1563 1568 1570
1535 1535 1536 1537 1538 1538 1537 1536 1535 1533 1532 1529 1526 1524 1523 1520 1518 1517 1517 1516 1516 1515 1514 1514 1516 1518 1518 1522 1526 1528 1533 1539 1542 1542 1543 1546 1549 1550 1552 1555 1560 1563 1567
1536 1535 1535 1536 1537 1537 1535 1534 1532 1530 1528 1525 1522 1520 1519 1516 1513 1512 1511 1511 1511 1510 1510 1509 1510 1511 1514 1517 1519 1523 1527 1533 1536 1538 1539 1540 1542 1545 1547 1549 1554 1559 1562
1535 1535 1534 1535 1534 1533 1532 1531 1529 1527 1524 1523 1520 1518 1515 1514 1511 1507 1506 1505 1505 1505 1506 1506 1507 1507 1510 1511 1513 1518 1521 1525 1528 1531 1533 1535 1537 1539 1544 1547 1549 1554 1554
1533 1534 1534 1534 1533 1531 1530 1529 1527 1525 1522 1520 1516 1514 1512 1510 1510 1506 1502 1501 1500 1500 1500 1501 1502 1502 1503 1505 1506 1509 1512 1515 1518 1522 1526 1530 1533 1534 1537 1541 1545 1546 1551
1531 1532 1533 1532 1531 1529 1527 1525 1523 1521 1519 1517 1514 1512 1510 1508 1506 1503 1503 1502 1498 1497 1497 1495 1494 1495 1496 1497 1498 1500 1502 1505 1508 1513 1519 1523 1526 1527 1531 1535 1539 1542 1543
1529 1530 1529 1528 1528 1526 1523 1521 1520 1517 1514 1512 1510 1508 1506 1504 1501 1500 1498 1496 1495 1493 1491 1489 1489 1489 1489 1489 1490 1491 1493 1495 1497 1503 1510 1514 1517 1519 1524 1528 1533 1536 1538
1526 1526 1526 1525 1524 1521 1519 1517 1515 1513 1510 1508 1506 1504 1501 1499 1497 1494 1491 1490 1487 1486 1484 1482 1481 1480 1480 1481 1481 1482 1483 1485 1489 1494 1500 1505 1508 1513 1517 1519 1524 1527 1531
1523 1522 1522 1521 1520 1518 1516 1515 1512 1509 1507 1505 1503 1500 1497 1494 1491 1488 1486 1483 1480 1478 1476 1475 1473 1472 1471 1471 1472 1474 1475 1476 1478 1482 1488 1495 1499 1503 1508 1511 1514 1518 1522
1520 1520 1518 1518 1517 1515 1513 1512 1510 1507 1505 1502 1499 1496 1493 1487 1484 1481 1478 1476 1473 1471 1469 1465 1464 1465 1462 1461 1461 1461 1464 1466 1468 1471 1476 1483 1488 1493 1498 1501 1505 1509 1513
1518 1516 1516 1515 1514 1512 1511 1509 1507 1505 1502 1500 1496 1493 1489 1483 1478 1474 1472 1468 1464 1462 1462 1459 1458 1455 1456 1455 1452 1453 1453 1456 1459 1461 1465 1470 1477 1481 1489 1492 1495 1499 1502
1516 1515 1513 1513 1511 1510 1509 1507 1505 1503 1500 1497 1494 1490 1484 1477 1470 1465 1461 1458 1457 1454 1452 1449 1446 1443 1443 1444 1445 1444 1443 1445 1448 1451 1454 1458 1464 1469 1476 1482 1486 1489 1492
1514 1513 1512 1510 1508 1508 1507 1506 1504 1501 1498 1494 1489 1484 1476 1469 1463 1457 1451 1447 1445 1442 1440 1438 1435 1433 1432 1431 1432 1433 1434 1434 1436 1439 1442 1446 1451 1457 1464 1470 1470 1479 1483
1510 1511 1510 1509 1508 1506 1505 1504 1501 1498 1494 1490 1485 1478 1469 1462 1455 1448 1441 1436 1434 1431 1429 1427 1424 1420 1419 1419 1420 1420 1421 1423 1424 1427 1431 1435 1439 1446 1452 1455 1459 1461 1473
1510 1510 1509 1507 1505 1504 1503 1501 1498 1493 1489 1485 1480 1472 1464 1456 1448 1440 1432 1426 1421 1419 1417 1415 1412 1409 1408 1407 1407 1409 1410 1412 1415 1416 1420 1423 1427 1432 1438 1444 1448 1453 1458
1508 1508 1507 1506 1504 1502 1500 1497 1493 1489 1484 1479 1473 1467 1460 1452 1443 1434 1425 1417 1413 1410 1406 1405 1402 1399 1398 1396 1396 1397 1400 1401 1404 1407 1409 1412 1415 1419 1424 1430 1437 1443 1450
1507 1506 1505 1503 1501 1499 1497 1493 1489 1485 1480 1475 1470 1463 1456 1448 1440 1431 1422 1413 1408 1402 1399 1395 1393 1391 1388 1387 1387 1388 1390 1391 1393 1395 1398 1400 1403 1408 1413 1418 1424 1431 1436
Wind_Speed
24 22 20 18 17 16 15 16 16 15 15 13 13 12 12 12 12 11 11 11 11 9 11 11 8 14 9 8 10 11 12 12 10 8 12 15 16 14 14 10 13 12 9
22 21 15 16 15 16 15 15 15 16 17 18 18 17 16 15 15 15 13 13 14 12 11 13 11 11 12 16 11 13 12 13 14 13 14 13 14 15 15 12 11 7 11
24 22 15 20 22 18 15 14 14 16 17 17 19 20 20 18 17 17 17 16 16 15 14 13 12 13 16 13 14 12 11 14 15 11 11 11 12 13 15 12 11 10 11
13 11 12 15 14 14 11 14 16 16 17 20 21 22 21 22 21 20 20 21 19 18 17 14 13 13 15 16 15 15 16 13 13 16 14 12 14 14 13 11 12 12 12
17 13 14 14 15 14 12 11 14 16 19 21 21 22 22 22 22 25 25 26 25 21 15 14 12 13 17 18 13 14 13 17 13 14 17 15 15 16 16 14 11 11 13
17 15 15 15 14 14 17 18 18 19 19 20 21 22 23 23 25 27 29 28 20 10 4 20 16 16 21 22 19 17 16 19 19 15 16 19 19 18 16 15 14 14 15
9 9 8 7 6 5 5 6 9 12 14 16 20 22 24 26 26 29 29 27 14 9 33 21 18 19 20 22 23 21 23 20 18 26 22 19 23 23 19 20 18 17 14
10 10 8 6 4 2 0 2 5 7 10 11 14 18 21 24 25 28 27 29 35 31 27 21 20 18 17 18 19 22 22 24 22 23 27 20 17 23 23 24 19 18 15
11 11 9 7 4 2 1 3 5 7 9 12 14 16 15 17 19 23 25 26 32 32 30 21 27 24 25 22 24 19 21 23 20 24 22 22 22 22 22 18 17 17 18
12 11 9 8 6 5 5 6 7 9 10 12 15 16 18 21 19 18 16 19 24 28 27 29 27 29 33 27 28 25 26 24 22 24 27 25 25 22 19 20 17 18 17
11 10 7 4 1 1 4 7 10 12 14 17 18 16 18 20 22 20 19 18 19 18 20 22 29 28 32 31 29 28 28 22 22 24 27 23 26 26 25 22 20 19 17
8 7 6 5 3 6 8 11 14 15 15 18 20 19 15 17 22 23 23 20 20 18 18 19 21 21 29 33 31 32 31 26 23 24 22 25 23 23 23 25 25 23 14
6 6 7 8 8 10 12 15 16 17 17 20 22 21 20 17 17 20 23 21 19 20 21 22 24 25 21 25 37 32 33 32 31 29 31 29 28 24 24 24 25 26 19
11 9 8 9 10 13 10 15 17 20 22 22 21 18 18 16 15 15 18 21 18 20 22 24 26 29 29 27 21 36 36 39 39 35 32 30 29 30 29 30 29 26 24
7 9 10 12 11 13 17 17 19 21 20 22 20 18 18 17 19 19 20 18 19 20 17 24 29 30 37 35 33 29 39 44 44 40 34 31 29 35 33 35 30 27 26
7 9 10 11 15 17 19 21 21 20 17 19 21 20 17 20 24 25 26 27 26 25 26 25 26 28 32 34 34 34 34 45 50 45 40 35 34 35 36 37 33 32 29
5 8 11 14 16 17 17 17 18 18 18 19 19 21 22 23 24 22 23 23 25 26 27 29 30 29 30 32 34 34 36 39 46 46 43 36 38 36 39 39 39 34 32
7 11 7 11 12 13 13 15 15 18 19 19 18 21 24 26 25 23 25 27 28 30 32 33 33 33 34 35 35 36 34 37 42 46 46 43 40 41 40 42 40 39 37
5 6 8 8 9 11 11 13 14 15 17 19 20 19 20 25 26 27 26 27 28 26 26 30 32 30 33 37 38 37 34 34 37 43 48 48 45 43 42 43 42 39 38
6 9 10 8 9 10 11 12 14 15 18 20 22 23 23 24 27 27 26 30 30 26 26 28 29 28 30 32 35 35 36 35 37 41 49 52 47 47 43 43 44 42 45
6 6 10 8 9 10 10 13 14 16 19 21 23 23 28 33 29 30 28 28 27 30 33 30 31 34 36 36 37 36 36 37 38 41 49 54 55 50 50 41 43 46 47
5 6 8 9 8 10 10 11 14 16 19 21 22 25 32 30 31 32 31 28 31 33 33 31 32 38 40 38 39 39 41 42 39 40 45 53 55 51 45 45 45 49 50
4 6 7 7 7 10 10 13 15 17 19 20 23 27 31 35 37 37 32 28 30 31 29 32 37 40 37 40 41 40 41 41 42 39 42 47 53 54 55 52 51 53 55
4 4 6 6 9 10 12 13 14 17 18 21 24 31 37 37 38 40 36 32 29 28 28 28 30 33 34 37 37 36 40 36 37 38 39 44 51 56 58 57 57 53 54
5 6 7 8 9 9 10 13 16 19 22 25 30 35 38 39 39 40 37 32 25 27 25 26 33 30 29 29 33 32 36 40 33 38 38 41 43 49 57 62 60 56 56
5 5 6 6 8 10 13 15 18 22 24 29 33 35 37 39 39 39 38 34 30 28 24 27 26 29 26 27 28 29 33 37 38 34 37 39 44 47 53 59 59 55 56
Wind_Direction
208 218 208 208 215 221 227 238 242 236 232 238 242 240 235 240 235 237 214 230 255 240 217 242 236 208 209 228 225 224 229 232 234 170 180 202 207 194 224 211 230 248 250
206 215 227 228 223 219 227 232 240 244 247 249 251 253 248 242 242 239 237 226 247 243 241 241 248 241 228 211 216 222 221 230 220 189 190 203 211 206 221 226 206 236 237
207 221 248 226 222 226 224 236 235 241 246 242 252 252 254 247 243 241 241 238 233 239 242 248 250 245 243 221 226 221 236 218 221 207 206 208 211 209 211 209 200 201 220
200 220 219 227 231 235 243 243 242 246 243 249 249 254 255 252 244 240 244 244 231 237 241 246 248 247 250 245 231 224 203 216 219 216 220 212 208 209 206 203 209 204 213
202 208 219 219 227 236 240 239 242 253 257 259 256 253 252 252 247 245 241 240 244 232 240 245 251 251 254 242 229 234 210 217 217 219 223 217 208 207 209 208 214 214 212
217 221 231 242 242 254 278 280 268 265 261 259 256 256 256 251 252 250 244 243 238 219 330 340 276 271 265 255 228 223 222 217 203 219 221 224 220 213 210 210 215 210 214
185 192 210 223 238 251 273 281 274 268 268 263 266 267 263 262 253 248 257 246 191 74 343 333 324 261 260 243 240 221 231 237 226 209 211 222 223 216 207 204 213 219 212
133 130 127 128 124 129 227 299 302 306 299 287 281 279 275 272 267 261 262 251 260 270 254 265 238 246 254 223 230 229 229 231 230 224 222 215 223 229 211 218 206 214 214
133 125 124 124 120 114 3 311 306 304 298 292 294 301 290 288 282 271 272 267 264 255 256 246 245 255 255 231 227 235 245 242 231 218 211 214 218 230 216 206 206 206 214
127 115 111 98 89 75 43 22 0 350 332 309 292 289 280 283 282 284 279 274 264 266 268 256 246 248 239 240 236 230 237 233 210 216 214 217 218 221 212 204 207 206 214
155 154 151 152 161 305 323 327 326 324 318 328 322 298 283 291 287 283 279 276 274 272 263 257 248 249 236 242 234 238 239 234 216 223 218 215 219 217 214 210 200 203 218
171 167 195 210 199 262 293 304 308 318 323 319 313 308 299 295 277 300 284 267 271 268 265 267 260 248 238 245 247 241 236 228 213 213 215 211 211 209 213 214 200 203 224
219 231 241 255 269 283 297 313 315 312 302 306 308 300 292 291 285 285 306 290 265 262 257 259 257 263 250 249 245 241 233 225 212 217 215 216 213 213 215 213 205 207 213
226 239 259 272 284 297 302 303 301 304 307 308 307 297 291 291 293 302 299 297 286 256 254 256 259 262 264 257 253 236 232 224 223 213 218 216 215 212 213 214 211 211 210
222 243 259 280 285 291 301 301 302 302 301 304 303 297 290 286 285 291 286 284 287 291 272 259 253 256 257 254 251 244 234 226 225 221 215 215 217 215 213 214 214 211 209
239 273 275 287 291 294 297 299 301 305 311 311 311 312 302 285 282 282 282 279 276 271 268 264 260 258 254 254 253 250 242 227 226 221 211 212 217 211 209 210 209 209 211
283 290 288 294 297 297 301 305 308 306 306 307 311 312 309 309 311 304 292 285 277 273 267 265 269 263 260 261 259 256 251 242 232 224 216 212 222 213 210 210 208 210 211
295 303 300 301 304 307 307 308 307 309 311 310 310 312 312 312 309 298 291 293 288 275 268 267 269 271 271 267 262 255 255 247 238 230 220 214 222 214 213 210 209 209 210
316 296 316 315 311 313 315 312 312 315 315 315 317 315 312 311 307 301 296 289 283 277 271 266 262 258 264 265 264 263 255 248 247 237 226 214 220 215 214 212 208 211 211
317 312 335 326 325 320 320 323 324 326 325 322 319 318 317 311 310 300 291 289 287 278 273 266 264 260 251 252 258 254 255 252 245 235 227 216 215 216 215 215 212 211 209
309 309 329 340 330 333 329 326 328 326 323 321 320 318 306 306 311 310 301 276 276 276 277 273 271 275 269 263 246 244 253 249 248 241 232 225 222 215 213 217 217 209 214
330 326 333 337 342 331 328 333 329 329 325 323 326 325 322 334 329 320 309 290 281 277 275 275 272 271 270 259 256 254 247 253 251 244 240 231 222 219 216 216 212 211 213
332 340 341 340 336 343 350 340 339 332 333 336 332 333 338 338 337 335 319 302 286 287 283 277 271 272 269 261 260 257 252 250 254 251 245 238 231 222 216 215 217 213 215
6 347 3 343 356 7 344 351 342 344 345 340 340 347 349 342 339 338 333 317 297 290 281 287 286 275 270 262 261 259 256 256 253 251 248 241 232 225 221 220 219 217 216
10 11 8 0 355 349 345 351 352 349 350 351 354 357 355 352 350 348 343 331 313 300 291 286 289 284 281 267 260 255 254 251 253 247 246 243 235 232 225 224 223 220 218
23 27 19 19 10 7 357 358 356 360 360 360 1 1 2 1 358 357 356 356 343 327 309 294 287 295 284 274 267 258 253 252 254 251 246 241 234 228 227 226 225 217 218